Location: ????????
(55.0559°N, 39.1270°E)
Time: 00:44:05
(UTC+00:00)

Cosmos 2292 Rocket - Pass Details

Date: 15 November 2025
Orbit: 369 x 1243 km, 83.0° (Epoch: 12 December)

Event Time Altitude Azimuth Distance (km) Brightness Sun altitude
Exits shadow 02:33:45 13° 212° (SSW) 2,109 6.0 -20.0°
Maximum altitude 02:38:23 56° 289° (WNW) 1,080 4.4 -19.3°
Drops below altitude 10° 02:45:00 10° 7° (N) 2,916 7.0 -18.4°
Sets 02:47:57 0° 12° (NNE) 3,986 7.8 -17.9°
